Regional Weather Roundup
Issued by NWS Sterling, VA

Home | Current Version | Previous Version | Graphics & Text | Print | Product List | Glossary On
Versions: 1 2 3 4 5 6 7 8 9 10 11 12 13 14 15 16 17 18 19 20 21 22 23 24 25 26 27 28 29 30 31 32 33 34 35 36 37 38 39 40 41 42 43 44 45 46 47 48 49 50
000
ASUS41 KLWX 280210
RWRLWX

REGIONAL WEATHER ROUNDUP
NATIONAL WEATHER SERVICE BALTIMORE MD/WASHINGTON DC
900 PM EST THU NOV 27 2014

Note: "FAIR" indicates few or no clouds below 12,000 feet
with no significant weather and/or obstructions to visibility.
 TC=TEMPERATURE CELSIUS

 * =Non NWS site. Station does not report precipitation (e.g. rain,
    snow, etc.), thunder, or fog.

DCZ001-MDZ009-015-VAZ040>042-051-053>054-280300-
WASHINGTON METRO

CITY           SKY/WX    TMP DP  RH WIND       PRES   REMARKS
WASHINGTON NAT CLOUDY    41  28  60 NW9       30.16S
DULLES         PTCLDY    35  28  75 W5        30.16R
ANDREWS AFB    MOCLDY    38  28  68 NW9       30.14S
FT BELVOIR     MOCLDY    38  28  65 W9        30.17R
QUANTICO       MOCLDY    34  29  82 NW5       30.19R
COLLEGE PARK*  CLOUDY    37  30  75 W6        30.15S
LEESBURG*      CLOUDY    36  32  87 W5        30.16R
MANASSAS*      PTCLDY    30  30 100 W3        30.17R
GAITHERSBURG*  CLOUDY    34  28  80 W8        30.17R WCI  27

$$

MDZ006>007-011-014-280300-
BALTIMORE METRO

CITY           SKY/WX    TMP DP  RH WIND       PRES   REMARKS
BWI AIRPORT    MOCLDY    34  28  79 W3        30.13R
MD SCIENCE CTR   N/A     38  29  70 MISG      30.14R
MARTIN STATE   MOCLDY    36  32  87 W3        30.15R
ANNAPOLIS      PTCLDY    36  28  73 W3        30.14R
FORT MEADE*    CLOUDY    32  30  93 CALM      30.16S

$$

MDZ012-015-019>023-280300-
MARYLAND EASTERN SHORE

CITY           SKY/WX    TMP DP  RH WIND       PRES   REMARKS
OCEAN CITY     CLEAR     34  28  79 NW6       30.12R
SALISBURY      PTCLDY    37  29  72 CALM      30.13R
BAY BRIDGE AP*   N/A     37  30  75 NW8       30.14S
CAMBRIDGE*     CLEAR     41  32  70 NW8       30.13R
EASTON*        PTCLDY    37  32  81 CALM      30.16

$$

MDZ017>025-280300-
SOUTHERN MARYLAND

CITY           SKY/WX    TMP DP  RH WIND       PRES   REMARKS
PATUXENT RIVER CLEAR     38  28  67 W9        30.15R
ST INIGOES     CLEAR     39  27  62 NW7       30.15R
LEONARDTOWN*   CLEAR     36  28  75 W7        30.16S

$$

MDZ003>005-280300-
NORTH CENTRAL MARYLAND

CITY           SKY/WX    TMP DP  RH WIND       PRES   REMARKS
FREDERICK*     LGT RAIN  37  32  81 W10       30.18R
HAGERSTOWN APT CLOUDY    34  31  88 W7        30.13S
WESTMINSTER*   CLOUDY    36  30  80 W6        30.11R

$$

MDZ501>502-280300-
WESTERN MARYLAND

CITY           SKY/WX    TMP DP  RH WIND       PRES   REMARKS
OAKLAND*       CLOUDY    23 N/A N/A W10G20    30.08S FOG     WCI  12
CUMBERLAND*    FAIR      34  23  64 NW8G20    30.22R WCI  27

$$

VAZ025>031-280300-
SHENANDOAH VALLEY

CITY           SKY/WX    TMP DP  RH WIND       PRES   REMARKS
WINCHESTER*    CLOUDY    36  27  69 W12       30.16R WCI  27
FRONT ROYAL*   CLOUDY    36  27  69 NW6       30.16R
LURAY*         FAIR      36  28  75 W6        30.17R
NEW MARKET*    CLOUDY    32  26  79 CALM      30.17R
STAUNTON*      MOCLDY    32  22  68 SW3       30.17F
WAYNESBORO*    CLOUDY    31  22  67 W7        30.16S

$$

WVZ021-048>050-054>055-280300-
EASTERN WEST VIRGINIA PANHANDLE

CITY           SKY/WX    TMP DP  RH WIND       PRES   REMARKS
MARTINSBURG    CLOUDY    38  25  59 W16G22    30.16R WCI  29
PETERSBURG*    NOT AVBL

$$

VAZ036>039-050-280300-
CENTRAL FOOTHILLS

CITY           SKY/WX    TMP DP  RH WIND       PRES   REMARKS
CHARLOTTESVILL CLEAR     36  21  54 W5        30.17S
CULPEPER*      CLEAR     30  28  93 CALM      30.18R
ORANGE*        MOCLDY    34  27  75 SW5       30.18S
GORDONSVILLE*  FAIR      37  22  56 W3        30.17S
WARRENTON*     FAIR      29  29 100 CALM      30.16R

$$

VAZ055>057-280300-
NORTH AND CENTRAL PIEDMONT

CITY           SKY/WX    TMP DP  RH WIND       PRES   REMARKS
FREDERICKSBRG* PTCLDY    36  31  84 NW5       30.17R
STAFFORD*      CLEAR     31  31 100 CALM      30.22R

$$

NCZ024-NYZ072-PAZ021-071-VAZ022-071-280300-
OTHER REGIONAL OBSERVATIONS

CITY           SKY/WX    TMP DP  RH WIND       PRES   REMARKS
NEW YORK CITY  CLOUDY    36  25  64 NW9       30.07R WCI  29
PHILADELPHIA   CLEAR     35  26  69 W7        30.12R
PITTSBURGH     MOCLDY    29  24  82 W8        30.19S WCI  21
ROANOKE        CLOUDY    34  16  47 NW17G28   30.25R WCI  23
RICHMOND       MOCLDY    39  33  79 NW5       30.17R
RALEIGH        PTCLDY    39  26  59 NW6       30.23R

$$

ANZ530>537-280300-
MARINE OBSERVATIONS

STATION/POSITION TIME  TEMP    WIND        PRES
                       AIR SEA DIR/SP/G
                 (UTC) (F)     (DEG/KT/KT) (MB)
THOMAS PT LIGHT  0200   39 47  300/ 10/ 11 1021.8R
BALT KEY BRIDGE  0200   39     280/  7/  8 1020.4R
COVE POINT       0200   39     320/ 10/ 13 1020.5S
LEWISETTA        0200   42 47  310/ 13/ 16 1020.9R
SOLOMONS ISLAND  0200      48                N/A
PINEY POINT      0200          350/ 19/ 20   N/A

$$




USA.gov is the U.S. government's official web portal to all federal, state and local government web resources and services.